Beverly, MA

4:57 PM EDT on May 26, 2018 (GMT -0400)
Beverly Municipal

Weather History for KBVY - September, 2013

Change the Weather History Date:

Saturday, September 7, 2013

  Actual Average Record
Temperature  
Mean Temperature 63 °F -  
Max Temperature 80 °F 74 °F 93 °F (2007)
Min Temperature 48 °F 53 °F 20 °F (1988)
Degree Days  
Heating Degree Days 2    
Growing Degree Days 13 (Base 50)    
Moisture  
Dew Point 48 °F    
Average Humidity 55    
Maximum Humidity 83    
Minimum Humidity 34    
Precipitation  
Precipitation 0.00 in - - ()
Sea Level Pressure  
Sea Level Pressure 29.95 in    
Wind  
Wind Speed 5 mph (WSW)    
Max Wind Speed 12 mph    
Max Gust Speed 26 mph    
Visibility 10 miles    
Events Rain    
Averages and records for this station are not official NWS values.
T = Trace of Precipitation, MM = Missing Value Source: NWS Daily Summary

Daily Weather History Graph

Daily Weather History Graph

Search for Another Location

Airport or City:

Astronomy

Sep. 07, 2013 Rise Set
Actual Time 6:15 AM EDT 7:07 PM EDT
Civil Twilight 5:46 AM EDT 7:35 PM EDT
Nautical Twilight 5:12 AM EDT 8:09 PM EDT
Astronomical Twilight 4:36 AM EDT 8:45 PM EDT
Moon 8:30 AM EDT (9/7) 7:59 PM EDT (9/7)
Length of Visible Light 13h 49m
Length of Day
12h 51m
Waxing Crescent, 5% of the Moon is Illuminated
Sep 7
Waxing Crescent
Sep 12
First Quarter
Sep 19
Full
Sep 26
Last Quarter
Oct 4
New

Hourly Weather History & Observations

Time (EDT) Temp. Dew Point Humidity Pressure Visibility Wind Dir Wind Speed Gust Speed Precip Events Conditions
12:53 AM 53.1 °F 44.1 °F 71% 30.07 in 10.0 mi SW 3.5 mph - N/A   Clear
1:53 AM 52.0 °F 44.1 °F 74% 30.06 in 10.0 mi SW 4.6 mph - N/A   Clear
2:53 AM 52.0 °F 44.1 °F 74% 30.04 in 10.0 mi SW 3.5 mph - N/A   Clear
3:53 AM 51.1 °F 44.1 °F 77% 30.04 in 10.0 mi Calm Calm - N/A   Clear
4:53 AM 51.1 °F 44.1 °F 77% 30.04 in 10.0 mi Calm Calm - N/A   Clear
5:53 AM 48.9 °F 44.1 °F 83% 30.03 in 10.0 mi SW 4.6 mph - N/A   Clear
6:53 AM 51.1 °F 45.0 °F 80% 30.04 in 10.0 mi Calm Calm - N/A   Clear
7:53 AM 55.9 °F 46.9 °F 72% 30.03 in 10.0 mi WSW 4.6 mph - N/A   Clear
8:53 AM 61.0 °F 46.9 °F 60% 30.01 in 10.0 mi WSW 8.1 mph - N/A   Partly Cloudy
9:53 AM 66.0 °F 48.0 °F 52% 30.00 in 10.0 mi SW 4.6 mph - N/A   Clear
10:53 AM 70.0 °F 48.0 °F 46% 29.99 in 10.0 mi SSW 6.9 mph - N/A   Scattered Clouds
11:53 AM 73.0 °F 46.9 °F 39% 29.96 in 10.0 mi WSW 5.8 mph - N/A   Scattered Clouds
12:53 PM 75.9 °F 46.0 °F 35% 29.94 in 10.0 mi WSW 8.1 mph - N/A   Clear
1:53 PM 77.0 °F 48.0 °F 36% 29.92 in 10.0 mi Variable 6.9 mph - N/A   Clear
2:14 PM 78.8 °F 48.2 °F 34% 29.92 in 1.5 mi WSW 8.1 mph - N/A   Haze
2:21 PM 78.8 °F 48.2 °F 34% 29.92 in 10.0 mi West 10.4 mph - N/A   Clear
2:53 PM 78.1 °F 48.0 °F 35% 29.89 in 10.0 mi SSW 11.5 mph - N/A   Clear
3:53 PM 77.0 °F 48.9 °F 37% 29.88 in 10.0 mi WSW 11.5 mph 21.9 mph N/A   Clear
4:53 PM 75.9 °F 48.9 °F 38% 29.86 in 10.0 mi WSW 11.5 mph 26.5 mph N/A   Clear
5:53 PM 75.0 °F 48.0 °F 38% 29.86 in 10.0 mi WSW 10.4 mph - N/A   Clear
6:53 PM 72.0 °F 50.0 °F 46% 29.87 in 10.0 mi West 6.9 mph - N/A   Clear
7:53 PM 70.0 °F 52.0 °F 53% 29.87 in 10.0 mi WSW 4.6 mph - N/A   Clear
8:53 PM 69.1 °F 53.1 °F 57% 29.86 in 10.0 mi WSW 4.6 mph - 0.00 in Rain Light Rain
9:53 PM 69.1 °F 53.1 °F 57% 29.86 in 10.0 mi West 4.6 mph - 0.00 in   Scattered Clouds
10:53 PM 68.0 °F 53.1 °F 59% 29.85 in 10.0 mi WSW 4.6 mph - N/A   Overcast
11:53 PM 66.0 °F 54.0 °F 65% 29.83 in 10.0 mi SW 4.6 mph - N/A   Overcast